Weather in Zhangala

Kazakhstan     49°12′56″N   50°18′10″E
temp.,
°C
wind,
m/s
gust,
m/s
humid.,
%
clouds,
%
prec.,
mm/h
press.,
hPa
HPBL,
m
11 may, tue
tue1123:00+11wsw4778100 5.4 1017686
02:00+10ssw35770 0.5 1018156
05:00+8ssw33760 0.5 102051
08:00+11s34650 0.0 1022249
11:00+15ssw22410 0.0 10241071
14:00+18ne11333 0.0 10241466
17:00+19ne553599 0.0 10231553
20:00+15ene5958100 0.0 1023473
12 may, wed
wed1223:00+13ne61093100 1.4 1022459
02:00+14ene61290100 0.4 1020519
05:00+15e51181100 0.4 1019375
08:00+17ese7156694 0.0 1019585
11:00+21se1012523 0.0 10201354
14:00+25ese9114041 0.0 10202041
17:00+26ese6940100 0.0 1019834
20:00+23e6105397 0.0 1019224
13 may, thu
thu1323:00+20e4857100 0.0 1019153
02:00+21ese71446100 0.1 1018343
05:00+20ese7155198 0.2 1019353
08:00+20ese7164839 0.0 1020665
11:00+26se9122649 0.0 1020998
14:00+28se9102155 0.0 10201488
17:00+29se8102231 0.0 10202142
20:00+27ese712295 0.0 1019288
14 may, fri
fri1423:00+21se614370 0.0 1021239
02:00+20se513315 0.0 1021195
05:00+18se6153889 0.1 1022244
08:00+19se51150100 0.6 1023255
11:00+26se810210 0.8 1023825
14:00+29sse810160 0.0 10221818
17:00+31sse78140 0.0 10222439
20:00+27ese47250 0.0 1021123
15 may, sat
sat1523:00+22ese58280 0.0 102196
02:00+20ese45320 0.0 102150
05:00+18ese46360 0.0 102173
08:00+21ese49390 0.0 1021216
11:00+28sse67253 0.0 1021688
14:00+31se67214 0.0 10213055
17:00+31se78210 0.0 10193093
20:00+28ese47280 0.0 1019126